Location: İstanbul
(41.0082°N, 28.9784°E)
Time: 15:32:43
(UTC+03:00)

Oscar 11 - Visible Passes

Search period start: 22 April 2024 00:00
Search period end: 02 May 2024 00:00
Orbit: 605 x 613 km, 97.7° (Epoch: 21 April)

Date Brightness Start Highest point End Pass type
(mag) Time Alt. Az. Time Alt. Az. Time Alt. Az.
22 Apr 9.3 04:04:24 10° NE 04:07:40 21° E 04:10:54 10° SE visible
22 Apr 7.9 05:39:46 10° N 05:43:37 33° WNW 05:47:27 10° SW visible
23 Apr 8.8 04:17:53 10° NE 04:21:39 29° E 04:25:23 10° SSE visible
24 Apr 8.2 04:31:31 10° NNE 04:35:37 42° E 04:39:40 10° S visible
25 Apr 7.5 04:45:17 10° NNE 04:49:32 61° E 04:53:45 10° S visible
26 Apr 7.0 04:59:06 10° NNE 05:03:25 88° E 05:07:41 10° SSW visible
27 Apr 10.0 03:40:00 10° ENE 03:40:56 11° E 03:41:54 10° ESE visible
27 Apr 7.1 05:13:00 10° N 05:17:16 64° WNW 05:21:29 10° SSW visible
28 Apr 9.7 03:52:23 10° NE 03:54:56 15° E 03:57:29 10° SE visible
28 Apr 7.5 05:26:59 10° N 05:31:04 44° WNW 05:35:08 10° SW visible
29 Apr 9.3 04:05:35 10° NE 04:08:54 22° E 04:12:12 10° SE visible
30 Apr 8.8 04:19:02 10° NE 04:22:50 30° E 04:26:36 10° SSE visible
01 May 8.1 04:32:37 10° NNE 04:36:43 43° E 04:40:47 10° S visible
